Regional Weather Roundup
Issued by NWS

Home | Current Version | Previous Version | Graphics & Text | Print | Product List | Glossary On
Versions: 1 2 3 4 5 6 7 8 9 10 11 12 13 14 15 16 17 18 19 20 21 22 23 24 25 26 27 28 29 30 31 32 33 34 35 36 37 38 39 40 41 42 43 44 45 46 47 48 49 50
000
ASUS43 KFSD 071402
RWRSD

WEATHER ROUNDUP FOR SOUTH DAKOTA
NATIONAL WEATHER SERVICE SIOUX FALLS SD
800 AM CST SUN FEB 07 2016

NOTE: "FAIR" INDICATES FEW OR NO CLOUDS BELOW 12,000 FEET WITH NO
SIGNIFICANT WEATHER AND/OR OBSTRUCTIONS TO VISIBILITY.


SDZ001>005-009-010-012>017-071500-
NORTHWEST AND NORTH CENTRAL SOUTH DAKOTA

CITY           SKY/WX    TMP DP  RH WIND       PRES   REMARKS
BUFFALO          N/A     33  13  43 NW46G60   29.96S WCI  16
FAITH            N/A     33  14  45 NW37G46   29.95S WCI  18
MOBRIDGE       MOCLDY    35  24  64 NW28G41   29.82R WCI  22
$$

SDZ012>016-024>037-041>051-057-063-072>074-071500-
SOUTHWEST AND SOUTH CENTRAL SOUTH DAKOTA

CITY           SKY/WX    TMP DP  RH WIND       PRES   REMARKS
RAPID CTY ARPT CLEAR     34  10  37 NW38G48   30.11R WCI  19
PIERRE         CLEAR     35  21  56 W26G36    29.92F WCI  22
CUSTER         CLEAR     24   4  42 NW16G39   30.07R WCI  11
ELLSWORTH AFB  CLEAR     34  11  38 NW32G49   30.09R WCI  20
PHILIP         CLEAR     35  19  52 W26G33    30.04S WCI  22
PINE RIDGE     PTCLDY    31  20  63 NW7       30.15R WCI  24
WINNER         FAIR      35  22  58 W18G29    30.01R WCI  24
$$

SDZ004>011-016>023-039-040-071500-
NORTHEAST SOUTH DAKOTA

CITY           SKY/WX    TMP DP  RH WIND       PRES   REMARKS
ABERDEEN       CLOUDY    37  24  59 W18       29.78F
WATERTOWN      PTCLDY    34  24  67 W22G32    29.74S WCI  22
BROOKINGS      MOCLDY    34  26  72 W24G30    29.77S WCI  21
SISSETON         N/A     35  24  64 NW24G31   29.68S WCI  23
$$

SDZ017-020-022-023-036>040-048>070-071500-
SOUTHEAST SOUTH DAKOTA

CITY           SKY/WX    TMP DP  RH WIND       PRES   REMARKS
SIOUX FALLS    CLOUDY    35  26  69 W21G28    29.84F WCI  24
HURON          PTCLDY    35  27  72 W22       29.86S WCI  23
MITCHELL       CLOUDY    37  28  70 W21       29.90F
YANKTON        PTCLDY    37  25  60 W23G30    29.92S
$$

ABBREVIATIONS USED IN REMARKS
   TC - TEMPERATURE IN CELSIUS
  WCI - WIND CHILL INDEX
   HX - HEAT INDEX
  VSB - VISIBILITY




USA.gov is the U.S. government's official web portal to all federal, state and local government web resources and services.